User: anonymous   Login
Location: Newark
(45.5000°N, 11.4167°E)
Time: 22:57:16
(UTC+00:00)
Language:

Courier 1B - Orbit

View from above orbital plane
View from above orbital plane
View from above satellite
View from above satellite

Ground track
Ground track

The orbit data is extracted from the following two-line orbital elements,

1    58U 60013A   19236.93651516 +.00000083 +00000-0 -35021-5 0  9998
2    58 028.3263 164.0052 0165031 126.1092 235.4852 13.46318892898496
Epoch (UTC): 24 August 2019 22:28:34
Eccentricity: 0.0165031
inclination: 28.3263°
perigee height: 962 km
apogee height: 1209 km
right ascension of ascending node: 164.0052°
argument of perigee: 126.1092°
revolutions per day: 13.46318892
mean anomaly at epoch: 235.4852°
orbit number at epoch: 89849

The dashed part of the orbit path shows where the satellite is in the earth's shadow,  

DLR